CAPE
0 0 0 0 0 0 0 0 0 0 0 0 0 0 0 0 0 0 0 0 0 0 0 0 0 0 0 0 0 0 0 0 0 0 0 0 1 1 3 20 84 189 610 888 746 781 543 562 515
0 0 0 0 0 0 0 0 0 0 0 0 0 0 0 0 0 0 0 0 0 0 0 0 0 0 0 0 0 0 0 0 0 0 0 0 0 0 0 0 2 10 104 385 775 611 696 524 573
0 0 0 0 0 0 0 0 0 0 0 0 0 0 0 0 0 0 0 0 0 0 0 0 0 0 0 0 0 0 0 0 0 0 0 0 0 0 0 0 0 1 3 35 146 290 579 619 616
0 0 0 0 0 0 0 0 0 0 0 0 0 0 0 0 0 0 0 0 0 0 0 0 0 0 0 0 0 0 0 0 0 0 0 0 0 0 0 0 0 0 0 1 2 16 81 194 557
0 0 0 0 0 0 0 0 0 0 0 0 0 0 0 0 0 0 0 0 0 0 0 0 0 0 0 0 0 0 0 0 0 0 0 0 0 0 0 0 0 0 0 0 0 0 0 8 108
0 0 0 0 0 0 0 0 0 0 0 0 0 0 0 0 0 0 0 0 0 0 0 0 0 0 0 0 0 0 0 0 0 0 0 0 0 0 0 0 0 0 0 0 0 0 0 0 0
0 0 0 0 0 0 0 0 0 0 0 0 0 0 0 0 0 0 0 0 0 0 0 0 0 0 0 0 0 0 0 0 0 0 0 0 0 0 0 0 0 0 0 0 0 0 0 0 0
0 0 0 0 0 0 0 0 0 0 0 0 0 0 0 0 0 0 0 0 0 0 0 0 0 0 0 0 0 0 0 0 0 0 0 0 0 0 0 0 0 0 0 0 0 0 0 0 0
0 0 0 0 0 0 0 0 0 0 0 0 0 0 0 0 0 0 0 0 0 0 0 0 0 0 0 0 0 0 0 0 0 0 0 0 0 0 0 0 0 0 0 0 0 0 0 0 0
0 0 0 0 0 0 0 0 0 0 0 0 0 0 0 0 0 0 0 0 0 0 0 0 0 0 0 0 0 0 0 0 0 0 0 0 0 0 0 0 0 0 0 0 0 0 0 0 0
0 0 0 0 0 0 0 0 0 0 0 0 0 0 0 0 0 0 0 0 0 0 0 0 0 0 0 0 0 0 0 0 0 0 0 0 0 0 0 0 0 0 0 0 0 0 0 0 0
0 0 0 0 0 0 0 0 0 0 0 0 0 0 0 0 0 0 0 0 0 0 0 0 0 0 0 0 0 0 0 0 0 0 0 0 0 0 0 0 0 0 0 0 0 0 0 0 0
0 0 0 0 0 0 0 0 0 0 0 0 0 0 0 0 0 0 0 0 0 0 0 0 0 0 0 0 0 0 0 0 0 0 0 0 0 0 0 0 0 0 0 0 0 0 0 0 0
0 0 0 0 0 0 0 0 0 0 0 0 0 0 0 0 0 0 0 0 0 0 0 0 0 0 0 0 0 0 0 0 0 0 0 0 0 0 0 0 0 0 0 0 0 0 0 0 0
0 0 0 0 0 0 0 0 0 0 0 0 0 0 0 0 0 0 0 0 0 0 0 0 0 0 0 0 0 0 0 0 0 0 0 0 0 0 0 0 0 0 0 0 0 0 0 0 0
0 0 0 0 0 0 0 0 0 0 0 0 0 0 0 0 0 0 0 0 0 0 0 0 0 0 0 0 0 0 0 0 0 0 0 0 0 0 0 0 0 0 0 0 0 0 0 0 0
0 0 0 0 0 0 0 0 0 0 0 0 0 0 0 0 0 0 0 0 0 0 0 0 0 0 0 0 0 0 0 0 0 0 0 0 0 0 0 0 0 0 0 0 0 0 0 0 0
0 0 0 0 0 0 0 0 0 0 0 0 0 0 0 0 0 0 0 0 0 0 0 0 0 0 0 0 0 0 0 0 0 0 0 0 0 0 0 0 0 0 0 0 0 0 0 0 0
0 0 0 0 0 0 0 0 0 0 0 0 0 0 0 0 0 0 0 0 0 0 0 0 0 0 0 0 0 0 0 0 0 0 0 0 0 0 0 0 0 0 0 0 0 0 0 0 0
0 0 0 0 0 0 0 0 0 0 0 0 0 0 0 0 0 0 0 0 0 0 0 0 0 0 0 0 0 0 0 0 0 0 0 0 0 0 0 0 0 0 0 0 0 0 1 0 0
0 0 0 0 0 0 0 0 0 0 0 0 0 0 0 0 0 0 0 0 0 0 0 0 0 0 0 0 0 0 0 0 0 0 0 0 0 0 0 0 0 0 0 0 0 0 0 2 0
0 0 0 0 0 0 0 0 0 0 0 0 0 0 0 0 0 0 0 0 0 0 0 0 0 0 0 0 0 0 0 0 0 0 0 0 0 0 0 0 0 0 0 0 0 0 0 0 1
0 0 0 0 0 0 0 0 0 0 0 0 0 0 0 0 0 0 0 0 0 0 0 0 0 0 0 0 0 0 0 0 0 0 0 0 0 0 0 0 0 0 0 0 0 0 0 1 1
0 0 0 0 0 0 0 0 0 0 0 0 0 0 0 0 0 0 0 0 0 0 0 0 0 0 0 0 0 0 0 0 0 0 0 0 0 0 0 0 0 0 0 0 0 0 1 1 1
0 0 0 0 0 0 0 0 0 0 0 0 0 0 0 0 0 0 0 0 0 0 0 0 0 0 0 0 0 0 0 0 0 0 0 0 0 0 0 0 0 0 0 0 0 1 1 0 1
0 0 0 0 0 0 0 0 0 0 0 0 0 0 0 0 0 0 0 0 0 0 0 0 0 0 0 0 0 0 0 0 0 0 0 0 0 0 0 0 0 0 0 0 0 0 1 0 1
0 0 0 0 0 0 0 0 0 0 0 0 0 0 0 0 0 0 0 0 0 0 0 0 0 0 0 0 0 0 0 0 0 0 0 0 0 0 0 0 0 0 0 0 1 1 0 0 2
0 0 0 0 0 0 0 0 0 0 0 0 0 0 0 0 0 0 0 0 0 0 0 0 0 0 0 0 0 0 0 0 0 0 0 0 0 0 0 0 0 0 0 0 0 0 0 1 1
0 0 0 0 0 0 0 0 0 0 0 0 0 0 0 0 0 0 0 0 0 0 0 0 0 0 0 0 0 0 0 0 0 0 0 0 0 0 0 0 0 0 0 0 0 0 0 0 2
0 0 0 0 0 0 0 0 0 0 0 0 0 0 0 0 0 0 0 0 0 0 0 0 0 0 0 0 0 0 0 0 0 0 0 0 0 0 0 0 0 0 0 0 0 0 0 0 1
CIN
-0 -0 -0 -0 -0 -0 -0 -0 -0 -0 -0 -0 -0 -0 -0 -0 -0 -0 -0 -0 -0 -0 -0 -0 -0 -0 -0 -0 -0 -0 -0 -0 -0 -0 -0 -0 -0 -0 -0 -206 -106 -47 -5 -1 -1 -1 -3 -4 -18
-0 -0 -0 -0 -0 -0 -0 -0 -0 -0 -0 -0 -0 -0 -0 -0 -0 -0 -0 -0 -0 -0 -0 -0 -0 -0 -0 -0 -0 -0 -0 -0 -0 -0 -0 -0 -0 -0 -0 -0 -0 -180 -77 -14 -0 -3 -1 -4 -6
-0 -0 -0 -0 -0 -0 -0 -0 -0 -0 -0 -0 -0 -0 -0 -0 -0 -0 -0 -0 -0 -0 -0 -0 -0 -0 -0 -0 -0 -0 -0 -0 -0 -0 -0 -0 -0 -0 -0 -0 -0 -0 -4 -158 -74 -32 -0 -0 -2
-0 -0 -0 -0 -0 -0 -0 -0 -0 -0 -0 -0 -0 -0 -0 -0 -0 -0 -0 -0 -0 -0 -0 -0 -0 -0 -0 -0 -0 -0 -0 -0 -0 -0 -0 -0 -0 -0 -0 -0 -0 -0 -0 -0 -3 -213 -157 -72 -0
-0 -0 -0 -0 -0 -0 -0 -0 -0 -0 -0 -0 -0 -0 -0 -0 -0 -0 -0 -0 -0 -0 -0 -0 -0 -0 -0 -0 -0 -0 -0 -0 -0 -0 -0 -0 -0 -0 -0 -0 -0 -0 -0 -0 -0 -0 -0 -172 -104
-0 -0 -0 -0 -0 -0 -0 -0 -0 -0 -0 -0 -0 -0 -0 -0 -0 -0 -0 -0 -0 -0 -0 -0 -0 -0 -0 -0 -0 -0 -0 -0 -0 -0 -0 -0 -0 -0 -0 -0 -0 -0 -0 -0 -0 -0 -0 -0 -0
-0 -0 -0 -0 -0 -0 -0 -0 -0 -0 -0 -0 -0 -0 -0 -0 -0 -0 -0 -0 -0 -0 -0 -0 -0 -0 -0 -0 -0 -0 -0 -0 -0 -0 -0 -0 -0 -0 -0 -0 -0 -0 -0 -0 -0 -0 -0 -0 -0
-0 -0 -0 -0 -0 -0 -0 -0 -0 -0 -0 -0 -0 -0 -0 -0 -0 -0 -0 -0 -0 -0 -0 -0 -0 -0 -0 -0 -0 -0 -0 -0 -0 -0 -0 -0 -0 -0 -0 -0 -0 -0 -0 -0 -0 -0 -0 -0 -0
-0 -0 -0 -0 -0 -0 -0 -0 -0 -0 -0 -0 -0 -0 -0 -0 -0 -0 -0 -0 -0 -0 -0 -0 -0 -0 -0 -0 -0 -0 -0 -0 -0 -0 -0 -0 -0 -0 -0 -0 -0 -0 -0 -0 -0 -0 -0 -0 -0
-0 -0 -0 -0 -0 -0 -0 -0 -0 -0 -0 -0 -0 -0 -0 -0 -0 -0 -0 -0 -0 -0 -0 -0 -0 -0 -0 -0 -0 -0 -0 -0 -0 -0 -0 -0 -0 -0 -0 -0 -0 -0 -0 -0 -0 -0 -0 -0 -0
-0 -0 -0 -0 -0 -0 -0 -0 -0 -0 -0 -0 -0 -0 -0 -0 -0 -0 -0 -0 -0 -0 -0 -0 -0 -0 -0 -0 -0 -0 -0 -0 -0 -0 -0 -0 -0 -0 -0 -0 -0 -0 -0 -0 -0 -0 -0 -0 -0
-0 -0 -0 -0 -0 -0 -0 -0 -0 -0 -0 -0 -0 -0 -0 -0 -0 -0 -0 -0 -0 -0 -0 -0 -0 -0 -0 -0 -0 -0 -0 -0 -0 -0 -0 -0 -0 -0 -0 -0 -0 -0 -0 -0 -0 -0 -0 -0 -0
-0 -0 -0 -0 -0 -0 -0 -0 -0 -0 -0 -0 -0 -0 -0 -0 -0 -0 -0 -0 -0 -0 -0 -0 -0 -0 -0 -0 -0 -0 -0 -0 -0 -0 -0 -0 -0 -0 -0 -0 -0 -0 -0 -0 -0 -0 -0 -0 -0
-0 -0 -0 -0 -0 -0 -0 -0 -0 -0 -0 -0 -0 -0 -0 -0 -0 -0 -0 -0 -0 -0 -0 -0 -0 -0 -0 -0 -0 -0 -0 -0 -0 -0 -0 -0 -0 -0 -0 -0 -0 -0 -0 -0 -0 -0 -0 -0 -0
-0 -0 -0 -0 -0 -0 -0 -0 -0 -0 -0 -0 -0 -0 -0 -0 -0 -0 -0 -0 -0 -0 -0 -0 -0 -0 -0 -0 -0 -0 -0 -0 -0 -0 -0 -0 -0 -0 -0 -0 -0 -0 -0 -0 -0 -0 -0 -0 -0
-0 -0 -0 -0 -0 -0 -0 -0 -0 -0 -0 -0 -0 -0 -0 -0 -0 -0 -0 -0 -0 -0 -0 -0 -0 -0 -0 -0 -0 -0 -0 -0 -0 -0 -0 -0 -0 -0 -0 -0 -0 -0 -0 -0 -0 -0 -0 -0 -0
-0 -0 -0 -0 -0 -0 -0 -0 -0 -0 -0 -0 -0 -0 -0 -0 -0 -0 -0 -0 -0 -0 -0 -0 -0 -0 -0 -0 -0 -0 -0 -0 -0 -0 -0 -0 -0 -0 -0 -0 -0 -0 -0 -0 -0 -0 -0 -0 -0
-0 -0 -0 -0 -0 -0 -0 -0 -0 -0 -0 -0 -0 -0 -0 -0 -0 -0 -0 -0 -0 -0 -0 -0 -0 -0 -0 -0 -0 -0 -0 -0 -0 -0 -0 -0 -0 -0 -0 -0 -0 -0 -0 -0 -0 -0 -0 -0 -0
-0 -0 -0 -0 -0 -0 -0 -0 -0 -0 -0 -0 -0 -0 -0 -0 -0 -0 -0 -0 -0 -0 -0 -0 -0 -0 -0 -0 -0 -0 -0 -0 -0 -0 -0 -0 -0 -0 -0 -0 -0 -0 -0 -0 -0 -0 -0 -0 -0
-0 -0 -0 -0 -0 -0 -0 -0 -0 -0 -0 -0 -0 -0 -0 -0 -0 -0 -0 -0 -0 -0 -0 -0 -0 -0 -0 -0 -0 -0 -0 -0 -0 -0 -0 -0 -0 -0 -0 -0 -0 -0 -0 -0 -0 -0 -0 -1 -0
-0 -0 -0 -0 -0 -0 -0 -0 -0 -0 -0 -0 -0 -0 -0 -0 -0 -0 -0 -0 -0 -0 -0 -0 -0 -0 -0 -0 -0 -0 -0 -0 -0 -0 -0 -0 -0 -0 -0 -0 -0 -0 -0 -0 -0 -0 -3 -0 -0
-0 -0 -0 -0 -0 -0 -0 -0 -0 -0 -0 -0 -0 -0 -0 -0 -0 -0 -0 -0 -0 -0 -0 -0 -0 -0 -0 -0 -0 -0 -0 -0 -0 -0 -0 -0 -0 -0 -0 -0 -0 -0 -0 -0 -0 -0 -0 -2 -0
-0 -0 -0 -0 -0 -0 -0 -0 -0 -0 -0 -0 -0 -0 -0 -0 -0 -0 -0 -0 -0 -0 -0 -0 -0 -0 -0 -0 -0 -0 -0 -0 -0 -0 -0 -0 -0 -0 -0 -0 -0 -0 -0 -0 -0 -0 -0 -0 -0
-0 -0 -0 -0 -0 -0 -0 -0 -0 -0 -0 -0 -0 -0 -0 -0 -0 -0 -0 -0 -0 -0 -0 -0 -0 -0 -0 -0 -0 -0 -0 -0 -0 -0 -0 -0 -0 -0 -0 -0 -0 -0 -0 -0 -0 -0 -0 -0 -0
-0 -0 -0 -0 -0 -0 -0 -0 -0 -0 -0 -0 -0 -0 -0 -0 -0 -0 -0 -0 -0 -0 -0 -0 -0 -0 -0 -0 -0 -0 -0 -0 -0 -0 -0 -0 -0 -0 -0 -0 -0 -0 -0 -0 -0 -0 -0 -0 -0
-0 -0 -0 -0 -0 -0 -0 -0 -0 -0 -0 -0 -0 -0 -0 -0 -0 -0 -0 -0 -0 -0 -0 -0 -0 -0 -0 -0 -0 -0 -0 -0 -0 -0 -0 -0 -0 -0 -0 -0 -0 -0 -0 -0 -0 -0 -0 -0 -0
-0 -0 -0 -0 -0 -0 -0 -0 -0 -0 -0 -0 -0 -0 -0 -0 -0 -0 -0 -0 -0 -0 -0 -0 -0 -0 -0 -0 -0 -0 -0 -0 -0 -0 -0 -0 -0 -0 -0 -0 -0 -0 -0 -0 -0 -0 -0 -0 -0
-0 -0 -0 -0 -0 -0 -0 -0 -0 -0 -0 -0 -0 -0 -0 -0 -0 -0 -0 -0 -0 -0 -0 -0 -0 -0 -0 -0 -0 -0 -0 -0 -0 -0 -0 -0 -0 -0 -0 -0 -0 -0 -0 -0 -0 -0 -0 -0 -0
-0 -0 -0 -0 -0 -0 -0 -0 -0 -0 -0 -0 -0 -0 -0 -0 -0 -0 -0 -0 -0 -0 -0 -0 -0 -0 -0 -0 -0 -0 -0 -0 -0 -0 -0 -0 -0 -0 -0 -0 -0 -0 -0 -0 -0 -0 -0 -0 -0
-0 -0 -0 -0 -0 -0 -0 -0 -0 -0 -0 -0 -0 -0 -0 -0 -0 -0 -0 -0 -0 -0 -0 -0 -0 -0 -0 -0 -0 -0 -0 -0 -0 -0 -0 -0 -0 -0 -0 -0 -0 -0 -0 -0 -0 -0 -0 -0 -0
Wind_Speed
20 20 16 15 13 14 13 9 10 18 17 17 17 17 15 15 16 16 10 9 9 9 10 11 12 13 14 15 16 16 17 17 17 17 17 17 18 18 18 18 19 20 20 21 23 22 19 17 18
18 17 14 14 13 14 15 20 11 16 14 16 17 17 16 16 13 9 9 8 9 9 10 11 12 13 14 15 16 17 17 17 18 18 18 19 19 19 19 19 20 21 21 21 20 20 21 21 21
17 13 13 11 12 12 14 17 13 15 17 18 18 18 15 14 12 5 6 6 8 8 9 11 11 13 14 15 16 17 18 18 18 19 19 20 20 20 21 21 21 21 22 22 21 20 19 21 21
14 13 14 13 10 11 12 19 14 15 19 18 17 18 16 17 6 7 6 5 6 8 9 10 11 13 14 16 17 18 19 20 21 21 21 22 22 22 22 23 23 23 23 23 23 23 22 22 22
14 14 14 15 14 11 14 13 14 17 19 17 15 18 16 16 9 5 4 4 5 6 8 10 11 13 15 16 18 19 20 20 21 22 23 23 23 23 24 24 24 25 25 25 25 24 24 25 24
15 14 17 15 13 16 21 15 16 18 19 20 15 16 17 9 6 4 4 4 4 5 7 10 12 13 15 17 18 20 20 21 22 22 24 24 24 24 25 26 26 27 28 28 27 27 26 26 27
14 16 18 19 20 22 16 19 19 21 21 21 18 18 16 8 6 4 4 4 5 6 8 10 12 14 15 17 19 20 21 21 22 22 24 24 24 25 26 27 28 29 29 29 29 29 29 29 29
14 16 20 18 20 21 17 17 18 20 21 20 18 19 18 8 3 3 5 4 6 7 8 10 12 15 15 17 18 19 20 22 22 23 24 24 25 26 26 27 28 29 29 30 31 31 30 30 31
15 17 19 19 21 19 20 20 19 18 22 21 20 19 17 4 2 4 6 8 8 8 9 11 13 15 16 17 19 20 21 22 23 24 25 26 26 27 27 28 28 28 30 30 30 30 31 32 32
14 18 18 18 19 20 22 23 25 24 25 23 21 18 10 5 5 6 8 9 9 10 11 12 14 16 17 18 19 21 21 23 23 25 26 27 27 28 29 29 30 30 30 30 31 32 32 31 32
15 19 19 20 20 22 25 28 26 25 28 22 22 16 10 8 8 9 10 12 12 12 12 12 14 16 17 19 20 21 22 23 24 27 27 28 29 30 30 31 31 31 31 31 32 31 31 33 33
20 19 22 24 24 25 28 26 27 25 21 19 23 21 11 11 11 10 11 13 13 13 13 12 14 16 18 18 20 21 22 23 26 27 28 29 30 31 31 32 33 33 33 34 33 33 34 35 35
19 23 25 25 27 27 24 26 28 26 24 24 27 21 14 13 13 14 13 13 14 14 12 13 15 16 18 19 20 22 23 24 26 27 28 29 30 31 32 32 33 33 33 34 34 35 36 36 37
21 24 27 28 28 26 27 27 25 28 25 23 23 21 17 14 14 14 15 15 15 13 13 14 16 17 19 20 22 23 25 26 28 28 29 30 30 31 31 33 33 33 33 33 34 35 36 37 37
23 30 33 29 25 21 23 28 24 25 25 25 25 22 20 16 16 15 15 15 13 12 12 14 16 18 20 22 24 25 27 28 29 30 30 30 31 31 32 32 32 32 32 33 34 34 33 35 36
26 26 30 23 20 20 21 31 25 23 23 26 25 22 23 22 17 17 15 14 12 12 13 15 17 19 21 23 25 26 28 29 30 30 30 30 30 30 31 32 32 32 32 32 34 35 36 37 38
24 28 26 27 22 23 22 29 24 26 33 34 33 34 31 28 21 16 14 13 12 13 15 17 18 20 23 24 26 27 28 29 29 29 30 29 29 30 31 31 32 32 33 34 35 35 37 37 38
24 26 26 27 27 26 29 31 33 34 33 35 36 34 30 24 20 16 13 13 13 14 16 18 20 22 23 25 26 27 27 27 29 30 29 29 29 29 29 31 32 31 32 33 35 36 37 38 41
24 26 29 28 28 32 31 38 43 41 38 35 30 26 23 20 18 16 15 14 15 17 18 19 21 22 24 26 27 27 28 30 29 28 27 27 27 27 27 29 30 31 32 34 35 36 38 39 40
23 27 29 28 22 32 35 44 41 31 26 25 24 23 20 18 19 19 18 19 20 21 22 21 20 20 23 24 26 26 28 26 27 27 26 24 24 26 27 28 29 29 30 32 32 33 36 37 38
24 25 25 28 31 28 37 35 30 27 25 23 23 21 21 19 19 20 20 20 20 19 18 18 19 22 24 26 26 26 26 24 24 24 25 26 28 27 27 26 26 27 28 29 30 32 35 39 38
24 20 23 26 31 32 30 38 31 25 25 24 24 23 21 20 18 16 16 17 18 19 19 21 23 25 25 24 25 25 24 24 23 25 26 26 26 25 24 25 26 27 27 28 30 31 35 37 42
20 19 22 24 29 32 28 29 26 23 26 25 23 22 22 22 21 20 19 19 19 19 22 24 24 25 24 24 24 24 24 24 25 25 24 25 25 24 25 26 26 26 26 27 28 28 26 26 30
18 21 22 22 26 32 23 23 26 25 23 23 22 24 26 24 21 19 20 20 22 22 23 24 24 24 24 23 24 24 24 24 25 25 24 24 23 24 25 25 26 25 26 26 27 28 25 25 26
18 20 27 30 28 28 19 23 26 20 20 22 25 27 25 25 24 22 20 19 24 24 22 22 23 25 24 23 24 23 23 22 22 23 23 23 23 24 24 26 26 25 25 27 26 25 23 24 24
15 17 22 30 28 27 20 26 23 17 19 20 22 23 24 26 27 24 22 22 22 21 23 23 23 23 22 23 23 22 22 21 21 20 21 22 23 23 21 23 25 28 28 24 21 22 22 23 24
15 17 16 21 22 26 21 19 18 17 20 21 22 23 26 28 29 26 24 21 23 23 23 22 23 23 23 24 24 23 22 21 21 20 19 20 20 20 20 19 22 22 22 23 23 24 21 22 21
15 13 19 18 24 27 24 21 19 13 20 22 24 25 28 29 29 26 24 24 23 22 21 22 23 24 23 23 22 21 22 21 19 16 17 18 18 19 20 19 17 20 23 25 26 23 21 22 20
14 16 15 16 17 24 29 21 19 12 17 23 24 26 29 30 27 23 23 23 21 21 21 22 22 22 22 21 22 21 20 18 15 15 16 15 17 17 16 15 15 15 15 17 17 18 17 18 17
16 16 12 18 19 17 21 24 11 14 17 19 23 25 27 27 24 23 23 22 22 22 21 21 21 21 21 22 21 20 20 17 15 14 14 14 14 15 14 14 15 15 15 14 14 15 15 16 15
Wind_Direction
281 264 310 324 340 339 354 38 183 320 328 331 334 331 334 336 324 317 16 38 36 24 10 4 4 3 1 357 355 350 347 352 348 344 340 335 335 331 330 318 312 315 308 293 276 284 297 298 294
298 301 329 334 342 336 340 336 343 327 343 343 337 332 333 325 338 356 4 44 45 34 17 7 7 1 358 355 351 347 346 343 342 338 337 332 324 324 326 329 317 308 309 313 315 302 292 288 285
304 335 341 358 342 333 331 343 4 345 339 335 336 338 336 335 341 20 10 49 40 22 12 3 2 356 354 350 346 342 338 337 337 336 330 325 322 318 310 314 316 316 309 304 306 312 314 294 293
339 345 342 339 337 341 332 331 352 340 331 336 335 332 342 329 17 4 74 46 15 7 2 3 2 356 350 345 343 339 334 330 327 326 325 322 321 317 313 309 306 309 306 307 306 304 303 304 298
343 345 332 329 330 334 333 336 337 334 333 331 334 325 331 335 356 46 48 33 19 2 356 350 352 349 346 341 338 336 335 332 328 325 322 320 318 316 313 309 308 306 303 301 304 304 301 296 297
337 339 327 327 330 329 328 330 331 329 329 325 329 329 325 354 7 9 7 7 11 358 348 341 342 342 341 339 336 334 333 332 330 326 322 321 319 316 312 310 307 303 301 299 298 298 298 296 292
332 330 323 321 323 319 334 328 325 324 324 322 326 320 328 336 345 5 358 2 355 351 341 337 336 337 339 339 337 335 332 331 330 329 326 323 321 318 315 311 307 304 302 299 298 297 296 294 292
333 329 322 326 326 325 335 335 331 327 325 326 326 320 320 318 352 2 342 334 333 330 329 330 332 332 332 334 337 337 335 332 330 329 327 324 320 318 317 316 312 308 305 302 300 297 296 294 292
330 323 320 323 323 330 332 329 332 334 325 325 323 322 326 2 12 327 315 312 315 319 323 326 326 326 329 331 331 332 333 332 330 327 325 323 322 319 317 315 314 313 309 305 304 303 299 296 294
324 319 319 327 327 323 323 323 321 322 320 318 319 324 334 329 300 288 287 288 295 301 311 318 321 322 324 326 327 328 329 328 328 326 324 322 320 319 316 315 313 311 310 310 306 302 301 300 296
321 313 317 321 324 322 318 315 319 316 313 316 315 317 312 308 296 282 281 284 286 294 303 311 317 320 322 323 325 325 327 326 325 323 322 321 319 317 315 314 313 311 310 307 306 305 304 300 298
313 315 313 314 319 317 314 317 314 313 312 320 320 318 305 295 288 284 279 280 283 287 293 305 313 316 319 322 323 324 325 325 324 323 322 320 318 317 316 314 312 310 309 306 305 304 302 300 298
310 312 311 314 313 314 318 314 313 313 311 311 309 313 301 292 289 289 287 285 288 282 287 299 309 313 315 317 320 321 322 323 323 322 322 321 319 317 316 315 313 311 310 308 306 304 301 299 298
317 314 311 311 310 313 312 314 317 318 320 317 316 309 302 292 289 288 286 285 282 281 285 298 305 309 312 313 316 317 319 320 320 320 320 320 319 318 318 316 315 313 312 310 308 305 303 300 299
315 309 309 312 314 312 321 315 316 320 318 316 315 314 313 299 295 288 286 286 278 282 288 298 304 308 309 311 314 315 316 317 317 317 318 319 318 317 317 316 316 315 314 312 310 308 308 305 303
312 313 312 322 326 323 323 313 322 329 329 321 320 317 313 310 296 295 293 288 283 286 292 300 304 306 309 311 312 313 314 315 316 317 319 320 320 320 318 316 315 316 315 313 310 308 306 305 303
309 307 311 316 322 321 318 315 319 321 316 312 309 308 307 306 302 300 299 295 291 291 295 299 302 305 308 310 311 312 314 315 316 317 318 320 321 321 318 317 317 317 314 313 312 309 307 305 304
308 308 312 312 320 317 313 309 313 316 315 313 311 311 313 312 306 308 309 308 302 298 299 302 304 306 308 309 311 312 315 317 318 316 317 319 320 321 320 319 319 320 319 317 315 312 310 308 305
309 309 309 312 318 316 314 311 309 313 314 315 319 319 317 317 314 313 314 312 307 305 304 304 304 305 307 308 310 312 313 315 317 319 319 321 323 324 326 324 323 322 322 321 319 316 313 311 309
309 309 310 317 323 319 315 310 316 328 334 336 332 331 327 320 314 311 312 309 306 303 302 302 304 307 309 310 312 314 315 317 317 317 319 326 329 329 329 328 328 328 328 327 326 324 319 316 314
308 308 313 314 318 321 319 320 328 335 340 343 345 341 335 326 317 313 311 311 311 309 308 307 307 308 308 311 312 314 317 317 319 318 318 322 323 328 330 332 334 335 335 334 333 330 325 319 317
305 318 317 318 319 317 331 316 327 338 340 344 343 341 340 337 334 330 325 321 318 314 310 308 307 306 308 312 313 312 313 313 314 315 318 325 332 335 338 338 337 336 336 336 335 333 329 325 316
310 320 319 321 321 322 327 323 331 337 335 339 344 345 342 335 328 323 321 320 322 318 309 305 306 307 309 310 307 308 305 307 309 315 326 331 334 337 337 337 338 338 341 339 337 339 340 337 331
317 318 322 325 326 319 329 331 332 333 338 340 342 337 332 333 334 332 325 321 317 316 310 306 305 304 304 302 299 297 303 307 311 320 330 334 338 339 340 341 340 343 344 342 341 338 337 335 332
317 318 313 315 320 321 338 331 332 342 344 342 338 331 332 328 325 332 331 331 317 313 312 310 301 292 294 294 290 297 310 317 325 329 335 337 339 340 342 341 343 347 344 339 342 342 341 337 332
316 319 315 313 318 325 337 329 341 352 352 357 354 348 341 330 320 328 333 327 326 321 305 295 293 290 289 286 293 305 315 324 330 337 337 339 340 344 352 350 345 339 335 342 345 344 341 338 335
319 316 329 322 328 326 335 342 347 352 352 358 356 353 341 318 313 327 328 331 317 308 298 295 289 280 280 284 293 302 317 326 331 337 346 347 350 353 355 358 351 350 348 345 345 344 341 339 335
318 329 323 328 322 324 334 335 334 344 343 356 354 350 333 314 311 314 318 285 282 303 303 291 278 271 278 287 301 313 312 323 339 358 356 355 358 357 355 359 2 353 348 344 344 345 344 340 335
313 314 323 328 328 325 327 340 347 350 349 347 347 335 325 329 314 287 279 297 312 301 279 266 267 268 277 292 297 308 318 341 6 8 7 11 5 8 9 10 8 4 1 359 356 352 347 345 343
310 313 313 314 321 330 332 333 0 354 355 352 344 335 325 314 308 300 297 297 289 274 266 260 255 260 274 287 304 308 317 355 11 21 21 21 21 18 18 18 13 11 9 8 3 357 357 357 353